User: anonymous   Login
Location: Unspecified
(0.0000°N, 0.0000°E)
Time: 17:08:21
(UTC+00:00)
Language:

UOSAT-12 - Orbit

View from above orbital plane
View from above orbital plane
View from above satellite
View from above satellite

Ground track
Ground track

The orbit data is extracted from the following two-line orbital elements,

1 25693U 99021A   21268.53596809  .00000029  00000-0  22714-4 0  9991
2 25693  64.5578 352.6954 0049024 275.7508  83.8008 14.80962853211051
Epoch (UTC): 25 September 2021 12:51:47
Eccentricity: 0.0049024
inclination: 64.5578°
perigee height: 592 km
apogee height: 660 km
right ascension of ascending node: 352.6954°
argument of perigee: 275.7508°
revolutions per day: 14.80962853
mean anomaly at epoch: 83.8008°
orbit number at epoch: 21105

The dashed part of the orbit path shows where the satellite is in the earth's shadow,  

DLR